Simultaneous Nadir Overpasses (SNOs) Predictions

Prediction of SNOs between FY3D and LANDSAT-8 Satellite Orbit:

Table of predicted SNOs for the next 14.0 days since TLE Epoch: 9/28/2024
Index Date (FY3D) Time (FY3D) Lat,Lon (FY3D) SZA (FY3D ) Date (LANDSAT-8) Time (LANDSAT-8) Lat,Lon (LANDSAT-8) SZA (LANDSAT-8 ) Distance(km) Time Diff (sec)
1 09/30/2024 11:03:06 -74.84,-160.88 102.03 09/30/2024 11:03:54 -74.84,-160.90 102.03 0.82 48
2 09/30/2024 11:53:50 74.76, 6.66 77.92 09/30/2024 11:53:21 74.76, 6.55 77.90 3.29 29
3 10/03/2024 02:29:36 75.01, 147.07 79.16 10/03/2024 02:30:48 74.91, 147.57 79.09 18.04 72
4 10/03/2024 03:20:17 -74.83, -45.09 100.99 10/03/2024 03:20:17 -74.84, -44.98 100.98 3.14 0
5 10/03/2024 04:10:58 74.61, 122.84 78.83 10/03/2024 04:09:46 74.66, 122.19 78.84 19.47 72
6 10/05/2024 18:46:44 74.83, -96.65 80.04 10/05/2024 18:47:12 74.86, -96.66 80.07 2.89 28
7 10/05/2024 19:37:28 -74.79, 70.79 99.99 10/05/2024 19:36:41 -74.79, 70.79 100.00 0.16 47
8 10/08/2024 10:13:11 -74.88,-148.33 98.91 10/08/2024 10:14:08 -74.89,-148.32 98.89 1.21 57
9 10/08/2024 11:03:55 74.82, 19.16 81.06 10/08/2024 11:03:35 74.80, 19.10 81.03 2.47 20
10 10/11/2024 01:39:47 75.35, 158.69 82.53 10/11/2024 01:40:54 75.25, 160.92 82.52 64.07 67
11 10/11/2024 02:30:21 -74.83, -32.43 97.93 10/11/2024 02:30:30 -74.83, -32.55 97.93 3.68 9



Historial Predications of SNOs between FY3D and LANDSAT-8
